Flag for Switzerland Weather past 2 weeks in Aarau, Aargau, Switzerland

Now
62 °F

Cool.


Feels Like: 62 °F
Forecast: 58 / 89 °F
Wind: 2 mph from North

Location: Wynau

Current Time: Aug 28, 2015 at 8:30:06 AM

Latest Report: Aug 28, 2015 at 7:00 AM


Visibility: N/A

Pressure: 30.03 "Hg

Humidity: 96%

Dew point: 61 °F

Location of AarauLocation

Historic Weather in Aarau — Graph

°F

Aarau temperature yesterday

Maximum temperature yesterday: 83 °F (at 5:00 PM)
Minimum temperature yesterday: 53 °F (at 7:00 AM)
Average temperature yesterday: 68 °F

Past Weeks' High & Low Weather Summary

 TemperatureHumidityPressure
High91 °F (Aug 13, 4:00 PM)100% (Aug 20, 4:00 AM)30.26 "Hg (Aug 20, 4:00 AM)
Low47 °F (Aug 26, 7:00 AM)27% (Aug 25, 6:00 PM)29.71 "Hg (Aug 24, 7:00 AM)
Average63 °F77%29.98 "Hg
* Reported Aug 13 7:00 AM — Aug 28 7:00 AM, Aarau, Weather by CustomWeather, © 2015

Note: Actual official high and low records may vary slightly from our data, if they occured in-between our weather recording intervals... More about our weather records

Advertising

Aarau weather history for previous 24 hours

 ConditionsComfort  
Time TempWeatherWind HumidityBarometerVisibility
7:00 AM
Fri, Aug 28
62 °FCool.2 mph96%30.03 "HgN/A
4:00 AM63 °FMild.2 mph92%29.99 "HgN/A
3:00 AM66 °FMild.3 mph81%29.97 "HgN/A
2:00 AM65 °FMild.3 mph87%29.97 "HgN/A
1:00 AM65 °FMild.No wind90%29.96 "HgN/A
10:00 PM
Thu, Aug 27
65 °FMild.1 mph89%29.92 "HgN/A
9:00 PM67 °FMild.No wind81%29.90 "HgN/A
8:00 PM72 °FMild.1 mph69%29.87 "HgN/A
7:00 PM79 °FWarm.1 mph59%29.85 "HgN/A
6:00 PM82 °FWarm.6 mph41%29.84 "HgN/A
5:00 PM83 °FWarm.5 mph42%29.84 "HgN/A
4:00 PM81 °FWarm.6 mph43%29.87 "HgN/A
3:00 PM81 °FWarm.8 mph44%29.88 "HgN/A
2:00 PM79 °FWarm.6 mph49%29.90 "HgN/A
1:00 PM78 °FWarm.7 mph52%29.91 "HgN/A
12:00 PM76 °FMild.8 mph54%29.93 "HgN/A
11:00 AM72 °FMild.5 mph65%29.95 "HgN/A
10:00 AM65 °FMild.1 mph78%29.98 "HgN/A
9:00 AM60 °FCool.1 mph88%30.00 "HgN/A
8:00 AM55 °FCool.1 mph96%30.02 "HgN/A
Weather by CustomWeather, © 2015

See weather overviewHow to use our weather pages